{"data":{"norad_id":59671,"epoch":"2026-09-21T06:49:35.222016Z","epoch_age_seconds":103449,"freshness":"FRESH","line1":"1 59671U 24084T   26264.28443544  .00000929  00000+0  43298-4 0  9999","line2":"2 59671  43.0037 344.1523 0001406 272.5834  87.4856 15.27577122134646","mean_motion":15.27577122,"eccentricity":0.0001406,"inclination_deg":43.0037,"raan_deg":344.1523,"arg_perigee_deg":272.5834,"mean_anomaly_deg":87.4856,"bstar":4.3298e-5,"rev_number":13464,"period_min":94.266926314965,"perigee_km":482.09302984377,"apogee_km":484.0223977973,"semimajor_km":6861.1947138205,"source":"CELESTRAK","updated_at":"2026-09-22T09:00:49.029285Z"}}